TERRESTAR-1

Last updated on Thu Nov 21 2024 00:02:41 GMT+0000 (Coordinated Universal Time)

1 35496U 09035A 24325.24625660 -.00000056 00000+0 00000+0 0 9991 2 35496 4.7208 48.1311 0002755 192.5669 156.7302 1.00271688 56407
UTC large
Height (km)
Speed (km/s)
/
Latitude / Longitude
Inclination (degrees)
Orbital Period (minutes)
Azimuth
Elevation
Range (km)
Doppler Factor

Next 0 passes for location: London (51.5072 / 0.1276)

Sorry there are no passes over London.